TimeEDT,TemperatureF,Dew PointF,Humidity,Sea Level PressureIn,VisibilityMPH,Wind Direction,Wind SpeedMPH,Gust SpeedMPH,PrecipitationIn,Events,Conditions,WindDirDegrees,DateUTC
12:58 AM,64.9,61.0,87,30.10,10.0,SSW,10.4,-,N/A,,Clear,210,2013-04-25 04:58:00
1:58 AM,64.9,62.1,90,30.09,9.0,SSW,10.4,-,N/A,,Clear,210,2013-04-25 05:58:00
2:58 AM,64.0,62.1,93,30.08,8.0,SSW,6.9,-,N/A,,Clear,210,2013-04-25 06:58:00
3:58 AM,64.0,62.1,93,30.09,7.0,SW,8.1,-,N/A,,Clear,220,2013-04-25 07:58:00
4:58 AM,64.9,63.0,93,30.09,9.0,SW,10.4,-,N/A,,Partly Cloudy,230,2013-04-25 08:58:00
5:18 AM,66.2,62.6,88,30.10,9.0,WSW,8.1,-,N/A,,Mostly Cloudy,250,2013-04-25 09:18:00
5:30 AM,64.4,62.6,94,30.11,8.0,WSW,9.2,-,N/A,,Overcast,240,2013-04-25 09:30:00
5:58 AM,64.9,63.0,93,30.12,9.0,SW,9.2,-,N/A,,Overcast,230,2013-04-25 09:58:00
6:58 AM,64.9,63.0,93,30.14,9.0,West,8.1,-,N/A,,Overcast,260,2013-04-25 10:58:00
7:58 AM,64.9,63.0,93,30.16,7.0,West,4.6,-,N/A,,Overcast,270,2013-04-25 11:58:00
8:58 AM,64.0,62.1,93,30.17,6.0,WSW,4.6,-,N/A,,Overcast,250,2013-04-25 12:58:00
9:58 AM,66.9,63.0,87,30.17,8.0,North,6.9,26.5,N/A,,Overcast,350,2013-04-25 13:58:00
10:58 AM,69.1,57.9,68,30.19,10.0,North,10.4,-,N/A,,Mostly Cloudy,10,2013-04-25 14:58:00
11:58 AM,64.9,55.9,73,30.20,10.0,NE,17.3,25.3,N/A,,Overcast,40,2013-04-25 15:58:00
12:58 PM,64.9,54.0,68,30.21,10.0,NE,11.5,20.7,N/A,,Mostly Cloudy,40,2013-04-25 16:58:00
1:43 PM,60.8,51.8,72,30.21,10.0,ENE,10.4,18.4,0.00,Rain,Light Rain,60,2013-04-25 17:43:00
1:58 PM,60.1,53.1,78,30.20,4.0,ENE,11.5,19.6,0.01,Rain,Light Rain,60,2013-04-25 17:58:00
2:58 PM,61.0,52.0,72,30.22,10.0,ENE,13.8,19.6,0.01,,Mostly Cloudy,70,2013-04-25 18:58:00
3:58 PM,63.0,51.1,65,30.21,10.0,ENE,12.7,-,N/A,,Clear,60,2013-04-25 19:58:00
4:58 PM,61.0,50.0,67,30.22,10.0,NE,10.4,18.4,N/A,,Overcast,50,2013-04-25 20:58:00
5:58 PM,57.9,48.9,72,30.23,10.0,NE,11.5,-,N/A,,Mostly Cloudy,50,2013-04-25 21:58:00
6:58 PM,57.0,46.9,69,30.22,10.0,ENE,10.4,16.1,N/A,,Overcast,60,2013-04-25 22:58:00
7:58 PM,55.9,46.0,69,30.25,10.0,NE,8.1,-,N/A,,Overcast,50,2013-04-25 23:58:00
8:58 PM,54.0,46.9,77,30.26,10.0,NE,6.9,-,N/A,,Partly Cloudy,50,2013-04-26 00:58:00
9:58 PM,54.0,48.0,80,30.27,10.0,NE,8.1,-,N/A,,Mostly Cloudy,50,2013-04-26 01:58:00
10:58 PM,53.1,46.9,80,30.29,10.0,NNE,4.6,-,N/A,,Partly Cloudy,30,2013-04-26 02:58:00
11:58 PM,52.0,46.9,83,30.28,10.0,Calm,Calm,-,N/A,,Clear,0,2013-04-26 03:58:00